#timestamp,LO_Frequency,Hit 
1498291215.3,286046998.2,N
1498291235.1,286046998.6,N
1498291255.9,286046996.5,N
1498291275.7,286046999.6,N
1498291295.5,286046996.7,N
1498291315.4,286046998.3,N
1498291335.2,286046999.0,N
1498291355.1,286046997.0,N
1498291356.0,286046997.0,N
1498291375.8,286046998.8,N
1498291395.6,286046999.3,N
1498291415.5,286046996.5,N
1498291435.3,286046999.4,N
1498291455.2,286046998.7,N
1498291475.9,286046998.6,N
1498291495.7,286046998.8,N
1498291515.6,286046997.0,N
1498291535.4,286046999.2,N
1498291555.2,286046996.5,N
1498291575.1,286046998.8,N
1498291576.0,286046998.8,N
1498291595.8,286046998.4,N
1498291615.7,286046999.5,N
1498291635.5,286046999.2,N
1498291655.3,286046998.4,N
1498291675.2,286046998.8,N
1498291695.0,286046998.6,N
1498291695.9,286046998.6,N
1498291715.7,286046999.2,N
1498291735.6,286046996.9,N
1498291755.4,286046999.3,N
1498291775.3,286047001.0,N
1498291795.1,286046999.0,N
1498291796.0,286046999.0,N
1498291815.8,286046998.7,N
1498291835.7,286046999.5,N
1498291855.5,286046996.5,N
1498291875.4,286046997.3,N
1498291895.2,286046996.6,N
1498291915.0,286046997.8,N
1498291915.9,286046997.8,N
1498291935.8,286046997.3,N
1498291955.6,286046997.7,N
1498291975.4,286046999.6,N
1498291995.3,286046996.6,N
1498292015.1,286046999.1,N
1498292035.9,286046999.6,N
1498292055.7,286046996.9,N
1498292075.5,286046997.6,N
1498292095.4,286046999.3,N
1498292115.2,286046997.3,N
1498292135.0,286046997.3,N
1498292135.9,286046997.3,N
1498292155.8,286046997.8,N
1498292175.6,286046997.8,N
1498292195.5,286046996.7,N
1498292215.3,286046997.5,N
1498292235.1,286046997.4,N
1498292255.9,286046997.8,N
1498292275.7,286046999.2,N
1498292295.5,286046996.8,N
1498292315.4,286046996.7,N
1498292335.2,286046997.8,N
1498292355.1,286046996.7,N
1498292356.0,286046996.7,N
1498292375.8,286046996.7,N
1498292395.6,286046997.7,N
1498292415.5,286046996.8,N
1498292435.3,286046997.2,N
1498292455.2,286046997.3,N
1498292475.9,286046996.7,N
1498292495.7,286046997.1,N
1498292515.6,286046997.4,N
1498292535.4,286046997.6,N
1498292555.2,286046994.9,N
1498292575.1,286046995.3,N
1498292576.0,286046995.3,N
1498292595.8,286046995.0,N
1498292615.7,286046997.7,N
1498292635.5,286046997.8,N
1498292655.3,286046997.6,N
1498292675.2,286046997.9,N
1498292695.0,286046995.5,N
1498292695.9,286046995.5,N
1498292715.7,286046995.8,N
1498292735.6,286046995.2,N
1498292755.4,286046995.1,N
1498292775.3,286046995.3,N
1498292795.1,286046995.0,N
1498292796.0,286046995.0,N
1498292815.8,286046994.9,N
1498292835.7,286046997.5,N
1498292855.5,286046997.7,N
1498292875.4,286046996.8,N
1498292895.2,286046997.1,N
1498292915.0,286046997.6,N
1498292915.9,286046997.6,N
1498292935.8,286046996.5,N
1498292955.6,286046997.1,N
1498292975.4,286046995.0,N
1498292995.3,286046997.5,N
1498293015.1,286046995.0,N
1498293035.9,286046995.5,N
1498293055.7,286046995.6,N
1498293075.5,286046995.6,N
1498293095.4,286046997.2,N
1498293115.2,286046995.1,N
1498293135.0,286046997.5,N
1498293135.9,286046997.5,N
1498293155.8,286046995.5,N
1498293175.6,286046995.9,N
1498293195.4,286046995.3,N
1498293215.2,286046997.9,N
1498293235.1,286046997.5,N
1498293236.0,286046997.5,N
1498293255.8,286046997.4,N
1498293275.6,286046999.4,N
1498293295.5,286046999.2,N
1498293315.3,286046999.5,N
1498293335.1,286046997.7,N
1498293355.9,286046997.1,N
1498293375.7,286046997.6,N
1498293395.6,286046996.7,N
1498293415.4,286046996.7,N
1498293435.2,286046996.5,N
1498293455.1,286046997.0,N
1498293456.0,286046997.0,N
1498293475.8,286046997.5,N
1498293495.7,286046997.4,N
1498293515.5,286046996.8,N
1498293535.3,286046997.8,N
1498293555.2,286046997.6,N
1498293575.0,286046997.6,N
1498293575.9,286046997.6,N
1498293595.7,286046995.5,N
1498293615.6,286046995.1,N
1498293635.4,286046996.1,N
1498293655.3,286046996.1,N
1498293675.1,286046997.5,N
1498293676.0,286046997.5,N
1498293695.8,286046997.5,N
1498293715.7,286046995.1,N
1498293735.5,286046995.8,N
1498293755.4,286046996.8,N
1498293775.2,286046997.8,N
1498293795.0,286046995.5,N
1498293796.0,286046995.5,N
1498293815.8,286046995.3,N
1498293835.6,286046996.3,N
1498293855.5,286046998.0,N
1498293875.3,286046995.3,N
1498293895.1,286046995.5,N
1498293915.9,286046995.3,N
1498293935.7,286046995.6,N
1498293955.6,286046994.9,N
1498293975.4,286046996.1,N
1498293995.2,286046996.0,N
1498294015.1,286046996.0,N
1498294016.0,286046996.0,N
1498294035.8,286046994.0,N
1498294055.6,286046994.1,N
1498294075.5,286046993.8,N
1498294095.3,286046996.1,N
1498294115.2,286046996.1,N
1498294135.9,286046993.5,N
1498294155.7,286046996.4,N
1498294175.6,286046996.4,N
1498294195.4,286046993.3,N
1498294215.2,286046995.9,N
1498294235.1,286046993.7,N
1498294236.0,286046993.7,N
1498294255.8,286046996.4,N
1498294275.7,286046993.5,N
1498294295.5,286046993.3,N
1498294315.3,286046993.6,N
1498294335.2,286046993.3,N
1498294355.0,286046996.4,N
1498294355.9,286046996.4,N
1498294375.7,286046995.6,N
1498294395.6,286046995.4,N
1498294415.4,286046993.5,N
1498294435.3,286046996.3,N
1498294455.1,286046993.8,N
1498294456.0,286046993.8,N
1498294475.8,286046993.3,N
1498294495.7,286046993.7,N
1498294515.5,286046996.3,N
1498294535.4,286046993.7,N
1498294555.2,286046994.0,N
1498294575.0,286046993.8,N
1498294575.9,286046993.8,N
1498294595.8,286046993.3,N
1498294615.6,286046993.4,N
1498294635.4,286046994.0,N
1498294655.3,286046993.6,N
1498294675.1,286046994.1,N
1498294695.9,286046994.3,N
1498294715.7,286046993.9,N
1498294735.5,286046994.6,N
1498294755.4,286046986.3,N
1498294775.2,286046993.4,N
1498294795.0,286046994.5,N
1498294795.9,286046994.5,N
